Location: Caltech
(34.1382°N, 118.1253°W)
Time: 16:35:38
(UTC-07:00)

Iridium 59 - Visible Passes

Search period start: 30 October 2014 00:00
Search period end: 08 November 2014 23:00
Orbit: 776 x 779 km, 86.4° (Epoch: 30 October)

Date Brightness Start Highest point End Pass type
(mag) Time Alt. Az. Time Alt. Az. Time Alt. Az.
31 Oct 6.7 20:23:14 10° SSW 20:25:17 24° SSW 20:25:17 24° SSW visible
01 Nov 5.0 19:49:44 10° S 19:54:11 59° SE 19:54:11 59° SE visible
01 Nov 8.0 21:34:31 10° W 21:34:52 10° W 21:34:52 10° W visible
02 Nov 8.0 05:25:30 10° NE 05:28:17 14° ENE 05:31:04 10° ESE visible
02 Nov 5.6 18:16:52 10° SSE 18:21:29 33° E 18:26:07 10° NNE visible
02 Nov 7.2 19:58:13 10° SW 20:02:12 22° W 20:06:13 10° NNW visible
03 Nov 6.3 17:44:53 10° ESE 17:48:13 17° E 17:51:33 10° NE visible
03 Nov 6.1 19:23:36 10° SSW 19:28:30 42° W 19:33:26 10° NNW visible
04 Nov 5.0 18:49:44 10° S 18:54:56 84° W 19:00:09 10° N visible
05 Nov 7.7 05:24:35 10° NNE 05:28:32 22° E 05:32:28 10° SE visible
05 Nov 5.1 18:16:28 10° SSE 18:21:28 50° E 18:26:29 10° NNE visible
05 Nov 7.8 19:59:33 10° WSW 20:02:27 15° WNW 20:05:21 10° NW visible
06 Nov 8.3 04:53:29 10° ENE 04:54:42 11° ENE 04:55:55 10° E visible
06 Nov 5.9 17:43:54 10° SE 17:48:07 26° E 17:52:21 10° NNE visible
06 Nov 6.9 19:24:13 10° SW 19:28:40 29° W 19:33:08 10° NNW visible
07 Nov 5.6 18:49:56 10° SSW 18:55:01 55° W 19:00:08 10° N visible
08 Nov 7.0 05:24:06 10° NNE 05:28:44 32° E 05:33:20 10° SE visible
08 Nov 4.9 18:16:19 10° S 18:21:29 76° E 18:26:41 10° N visible
